星链-31603 (STARLINK-31603 )

导读

STARLINK-31603是美国太空探索技术公司(SpaceX)于2024年3月11日发射的星链(Starlink)卫星,属于马斯克星链互联网星座计划,部署在近地轨道,为全球提供高速宽带互联网接入,尤其服务偏远地区。卫星采用平板设计,配备氪工质霍尔推进器和太阳能供电,具备自主避撞能力,寿命末期会坠入大气层烧毁,减少太空垃圾威胁。

基本信息
目录编号:
59201
目录名称:
STARLINK-31603
国际标识:
2024-046A
轨道中心:
EARTH
卫星名称:
星链-31603
卫星全名:
星链-31603 (STARLINK-31603 )
卫星状态:
在轨 (已飞行829 天)
发射日期:
2024-03-11 UTC
国别 :
美国 (US)
星等 :
--
轨道信息
数据来源 国际轨道数据
星历时间: 2026-06-17T06:55:37+0800
1天前
查看轨道信息
半长轴: 6853.336km
偏心率: 0.000114
轨道倾角: 53.161°
近地点辐角 86.710°
升交点赤经 54.543°
平近点角 273.403°
近地点: 474.417km
远地点: 475.981km
周期: 94.105分钟
每日圈数: 15.302056
详细信息
固有亮度:
5
最大亮度:
0.3
卫星平台:
Starlink v2.0 mini
覆盖范围:
全球
运营商:
太空探索技术公司
运营商所在国:
美国
制造商(研发单位):
太空探索技术公司
制造商所在国:
美国
使用方式:
暂无
卫星简介
星链(Starlink)计划是由太空探索技术公司(SpaceX)提出的一个巨型低轨卫星互联网星座项目,计划在2019年至2024年间在太空搭建由约1.2万颗卫星组成的“星链”网络,其中1584颗将部署在地球上空550千米处的近地轨道,并从2020年开始工作。该卫星仍在工作。
2D轨道图
3D轨道图
轨道高度分析图
轨道倾角分析图
轨道综合分析图
查看轨道综合分析图